Location: Banff
(51.1667°N, 115.5667°W)
Time: 15:47:33
(UTC+00:00)

Altair - Pass Details

Date: 26 November 2020
Orbit: 1501 x 1682 km, 47.2° (Epoch: 15 January)

Event Time Altitude Azimuth Distance (km) Brightness Sun altitude
Exits shadow 12:10:04 21° 206° (SSW) 2,916 8.7 -28.6°
Drops below altitude 10° 12:14:34 10° 179° (S) 3,714 9.5 -27.9°
Sets 12:18:27 0° 166° (SSE) 4,722 10.2 -27.3°
